Weather reports worldwide

Advertisment
Magilligan, United Kingdom (3907): temperature & dewpoint: 15.05.2019 16:00:00 - 21.05.2019 16:00:00 (BST)Magilligan, United Kingdom (3907): temperature -20cm & temperature -100cm: 15.05.2019 16:00:00 - 21.05.2019 16:00:00 (BST)Magilligan, United Kingdom (3907): wind speed & gusts: 15.05.2019 16:00:00 - 21.05.2019 16:00:00 (BST)Magilligan, United Kingdom (3907): wind direction: 15.05.2019 16:00:00 - 21.05.2019 16:00:00 (BST)Magilligan, United Kingdom (3907): reduced air pressure: 15.05.2019 16:00:00 - 21.05.2019 16:00:00 (BST)Magilligan, United Kingdom (3907): visibility: 15.05.2019 16:00:00 - 21.05.2019 16:00:00 (BST)Magilligan, United Kingdom (3907): sunshine duration: 15.05.2019 16:00:00 - 21.05.2019 16:00:00 (BST)Magilligan, United Kingdom (3907): precipitation: 15.05.2019 16:00:00 - 21.05.2019 16:00:00 (BST)
Date & Time tt [°C] td [°C] tt -20cm [°C] tt -100cm [°C] ff [km/h] ff [kn] fx [km/h] fx [kn] dd ppp [hPa] vv [km] sd [min] rr [mm]
21.05.2019 16:00:00 12,3 6,3 - - 15 8 - - NNE 1021,1 45 6 0,0
21.05.2019 15:00:00 11,5 8,0 - - 15 8 - - E 1021,3 45 6 0,0
21.05.2019 14:00:00 11,1 8,1 - - 15 8 - - NE 1021,2 45 6 0,0
21.05.2019 13:00:00 12,0 7,7 - - 13 7 - - NNE 1020,9 50 18 0,0
21.05.2019 12:00:00 13,0 8,1 - - 8 4 - - NNE 1020,9 40 12 0,0
21.05.2019 11:00:00 10,7 8,0 - - 9 5 - - SW 1020,8 45 6 0,0
21.05.2019 10:00:00 10,9 8,0 16,2 11,0 5 3 - - WSW 1020,7 45 0 0,0
21.05.2019 09:00:00 9,7 8,4 - - 11 6 - - SSW 1020,3 35 30 0,0
21.05.2019 08:00:00 9,4 7,6 - - 13 7 - - SSW 1020,0 35 54 0,0
21.05.2019 07:00:00 8,7 7,6 - - 15 8 - - SSW 1019,8 24 6 0,0
21.05.2019 06:00:00 7,5 7,0 - - 13 7 - - SSW 1019,6 25 0 0,0
21.05.2019 05:00:00 7,3 6,5 - - 13 7 - - SSW 1019,4 24 0 0,0
21.05.2019 04:00:00 7,9 7,0 - - 11 6 - - SSW 1019,4 30 0 0,0
21.05.2019 03:00:00 7,3 6,4 - - 9 5 - - SW 1019,4 35 0 0,0
21.05.2019 02:00:00 9,1 7,7 - - 8 4 - - W 1019,1 50 0 0,0
21.05.2019 01:00:00 8,8 7,7 - - 9 5 - - W 1018,9 50 - 0,0
21.05.2019 00:00:00 8,3 7,0 - - 8 4 - - WNW 1018,8 50 0 0,0
20.05.2019 23:00:00 8,8 7,5 - - 9 5 - - NW 1018,5 40 0 0,0
20.05.2019 22:00:00 9,2 7,2 - - 8 4 - - WNW 1018,4 40 18 0,0
20.05.2019 21:00:00 10,8 7,3 - - 15 8 - - WNW 1017,8 50 60 0,0
20.05.2019 20:00:00 12,0 8,1 - - 18 10 - - NW 1017,7 45 54 0,0
20.05.2019 19:00:00 13,3 7,7 - - 26 14 - - NW 1017,6 35 36 0,0
20.05.2019 18:00:00 13,8 9,0 - - 22 12 - - NW 1017,2 35 12 0,0
20.05.2019 17:00:00 11,9 9,2 - - 15 8 - - NW 1016,9 28 0 0,0
20.05.2019 16:00:00 12,3 9,0 - - 18 10 - - NNW 1016,7 40 6 0,0
20.05.2019 15:00:00 13,1 9,2 - - 13 7 - - NNE 1016,3 45 6 0,0
20.05.2019 14:00:00 13,3 8,8 - - 5 3 - - NNW 1016,1 50 0 0,0
20.05.2019 13:00:00 11,8 9,1 - - 9 5 - - SW 1016,0 25 0 0,0
20.05.2019 12:00:00 11,1 9,4 - - 15 8 - - SW 1015,9 40 0 0,6
20.05.2019 11:00:00 10,9 8,8 - - 11 6 - - WSW 1015,7 45 0 1,2
20.05.2019 10:00:00 10,1 8,8 16,2 11,0 21 11 - - W 1015,5 12 6 0,0
20.05.2019 09:00:00 10,8 8,7 - - 11 6 - - WSW 1015,2 50 6 0,2
20.05.2019 08:00:00 10,6 8,2 - - 11 6 - - W 1014,8 35 6 0,0
20.05.2019 07:00:00 9,6 8,1 - - 5 3 - - WNW 1014,4 23 0 0,0
20.05.2019 06:00:00 9,8 7,6 - - 9 5 - - WNW 1014,2 29 0 0,0
20.05.2019 05:00:00 9,6 8,2 - - 8 4 - - WNW 1013,9 30 0 0,0
20.05.2019 04:00:00 10,0 8,4 - - 9 5 - - WNW 1013,9 24 0 0,0
20.05.2019 03:00:00 10,2 8,2 - - 13 7 - - WNW 1013,9 21 0 0,0
20.05.2019 02:00:00 10,3 8,1 - - 11 6 - - W 1013,9 30 0 0,0
20.05.2019 01:00:00 10,4 8,4 - - 11 6 - - W 1014,0 26 - 0,0
20.05.2019 00:00:00 10,4 8,4 - - 8 4 - - W 1013,9 26 0 0,0
19.05.2019 23:00:00 10,2 8,4 - - 9 5 - - W 1014,0 27 0 0,0
19.05.2019 22:00:00 10,5 8,3 - - 11 6 - - WNW 1013,7 26 0 0,0
19.05.2019 21:00:00 10,8 8,4 - - 11 6 - - WNW 1013,4 24 0 0,0
19.05.2019 20:00:00 11,0 8,5 - - 15 8 - - WNW 1013,2 25 0 0,0
19.05.2019 19:00:00 11,6 8,4 - - 18 10 - - WNW 1012,8 30 0 0,0
19.05.2019 18:00:00 12,3 8,9 - - 18 10 - - NW 1012,4 29 0 0,0
19.05.2019 17:00:00 12,8 8,6 - - 21 11 - - WNW 1012,2 35 0 0,0
19.05.2019 16:00:00 12,7 9,2 - - 18 10 - - WNW 1012,1 35 0 0,0
19.05.2019 15:00:00 12,7 9,3 - - 16 9 - - WNW 1011,9 28 0 0,0
19.05.2019 14:00:00 11,2 9,5 - - 18 10 - - W 1011,9 13 0 0,2
19.05.2019 13:00:00 11,9 9,2 - - 18 10 - - W 1011,6 40 0 0,0
19.05.2019 12:00:00 12,0 9,9 - - 16 9 - - W 1011,2 30 0 0,0
19.05.2019 11:00:00 11,6 9,5 - - 18 10 - - WNW 1010,8 27 0 0,0
19.05.2019 10:00:00 11,4 9,5 16,2 11,0 21 11 - - W 1010,5 35 0 0,0
19.05.2019 09:00:00 11,2 9,3 - - 18 10 - - W 1010,3 45 0 0,0
19.05.2019 08:00:00 10,5 9,2 - - 21 11 - - WNW 1010,0 30 0 0,2
19.05.2019 07:00:00 10,4 9,2 - - 18 10 - - WNW 1009,5 20 0 0,0
19.05.2019 06:00:00 10,1 9,2 - - 16 9 - - WNW 1009,5 26 0 1,6
19.05.2019 05:00:00 10,0 9,1 - - 22 12 - - W 1009,3 10 0 0,4
19.05.2019 04:00:00 10,1 8,6 - - 18 10 - - W 1009,3 25 0 0,0
19.05.2019 03:00:00 10,0 8,5 - - 16 9 - - W 1009,5 40 0 0,0
19.05.2019 02:00:00 10,0 8,3 - - 24 13 - - WNW 1009,5 50 0 0,0
19.05.2019 01:00:00 9,9 8,4 - - 18 10 - - WNW 1009,8 45 - 0,0
19.05.2019 00:00:00 9,9 8,8 - - 9 5 - - NW 1009,8 11 0 0,0
18.05.2019 23:00:00 10,1 8,5 - - 11 6 - - NNW 1010,0 40 0 0,0
18.05.2019 22:00:00 9,9 8,6 - - 11 6 - - NNW 1009,9 35 0 0,0
18.05.2019 21:00:00 9,8 8,5 - - 15 8 - - NNW 1009,7 40 0 0,0
18.05.2019 20:00:00 9,9 8,5 - - 11 6 - - N 1009,4 45 0 0,0
18.05.2019 19:00:00 10,2 9,3 - - 11 6 - - N 1009,2 35 0 0,2
18.05.2019 18:00:00 10,1 9,0 - - 13 7 - - N 1008,9 15 0 0,2
18.05.2019 17:00:00 10,6 9,4 - - 13 7 - - N 1008,9 12 0 0,4
18.05.2019 16:00:00 10,6 9,8 - - 15 8 - - NNE 1009,0 8 0 0,2
18.05.2019 15:00:00 11,0 10,1 - - 13 7 - - NNE 1009,0 17 0 0,0
18.05.2019 14:00:00 10,9 9,8 - - 16 9 - - NNE 1009,1 24 0 0,0
18.05.2019 13:00:00 10,7 10,0 - - 15 8 - - N 1009,2 9 0 0,0
18.05.2019 12:00:00 10,8 9,2 - - 13 7 - - N 1009,4 45 0 0,0
18.05.2019 11:00:00 10,6 8,4 - - 8 4 - - NW 1009,7 12 0 1,0
18.05.2019 10:00:00 10,2 8,6 16,7 11,0 5 3 - - NNE 1009,7 16 0 0,8
18.05.2019 09:00:00 10,3 8,7 - - 4 2 - - NNE 1009,9 16 0 0,8
18.05.2019 08:00:00 9,9 8,4 - - 0 0 - - N 1009,9 18 0 0,0
18.05.2019 07:00:00 8,7 7,4 - - 5 3 - - SSE 1010,2 26 0 0,0
18.05.2019 06:00:00 9,1 7,7 - - 5 3 - - SSE 1010,3 30 0 0,0
18.05.2019 05:00:00 8,6 6,9 - - 4 2 - - S 1010,5 30 0 0,0
18.05.2019 04:00:00 8,7 6,7 - - 5 3 - - SSW 1011,0 35 0 0,0
18.05.2019 03:00:00 8,5 6,6 - - 8 4 - - S 1011,8 45 0 0,0
18.05.2019 02:00:00 8,4 5,7 - - 5 3 - - S 1012,0 45 0 0,0
18.05.2019 01:00:00 10,5 5,2 - - 2 1 - - SE 1012,5 50 - 0,0
18.05.2019 00:00:00 11,5 4,8 - - 8 4 - - ENE 1012,9 50 0 0,0
17.05.2019 23:00:00 10,2 5,1 - - 9 5 - - SSE 1013,2 50 0 0,0
17.05.2019 22:00:00 11,5 3,1 - - 8 4 - - N 1013,6 50 0 0,0
17.05.2019 21:00:00 12,0 2,6 - - 5 3 - - NE 1013,8 50 24 0,0
17.05.2019 20:00:00 12,1 4,0 - - 8 4 - - NNE 1014,0 50 6 0,0
17.05.2019 19:00:00 13,5 4,9 - - 11 6 - - NE 1013,9 35 12 0,0
17.05.2019 18:00:00 13,9 3,3 - - 13 7 - - NE 1014,2 40 42 0,0
17.05.2019 17:00:00 13,6 5,9 - - 13 7 - - NE 1014,7 45 60 0,0
17.05.2019 16:00:00 13,1 7,9 - - 16 9 - - NE 1015,5 45 30 0,0
17.05.2019 15:00:00 12,0 7,4 - - 13 7 - - NNE 1015,8 30 0 0,0
17.05.2019 14:00:00 11,8 6,9 - - 21 11 - - ENE 1016,3 40 6 0,0
17.05.2019 13:00:00 13,1 7,8 - - 16 9 - - NE 1016,3 40 0 0,0
17.05.2019 12:00:00 12,7 6,3 - - 16 9 - - ENE 1016,6 50 12 0,0
17.05.2019 11:00:00 13,0 7,7 - - 15 8 - - ENE 1016,8 27 6 0,0
17.05.2019 10:00:00 11,4 6,1 16,7 10,9 15 8 - - NE 1016,9 45 30 0,0
17.05.2019 09:00:00 12,3 4,5 - - 15 8 - - ENE 1017,2 50 60 0,0
17.05.2019 08:00:00 11,5 4,2 - - 9 5 - - ENE 1017,3 45 54 0,0
17.05.2019 07:00:00 11,5 2,5 - - 15 8 - - ESE 1017,1 50 6 0,0
17.05.2019 06:00:00 10,3 3,4 - - 13 7 - - NNE 1017,0 45 0 0,0
17.05.2019 05:00:00 10,8 2,4 - - 28 15 - - SE 1016,5 50 0 0,0
17.05.2019 04:00:00 10,9 3,6 - - 35 19 46 25 SE 1016,4 45 0 0,0
17.05.2019 03:00:00 10,5 4,8 - - 26 14 - - SE 1016,7 45 0 0,0
17.05.2019 02:00:00 10,2 5,0 - - 18 10 - - ESE 1017,1 50 0 0,0
17.05.2019 01:00:00 9,7 5,0 - - 15 8 - - ENE 1017,4 19 - 0,0
17.05.2019 00:00:00 11,2 4,4 - - 8 4 - - ENE 1017,5 25 0 0,0
16.05.2019 23:00:00 10,7 4,0 - - 9 5 - - NNE 1017,6 25 0 0,0
16.05.2019 22:00:00 11,6 4,0 - - 13 7 - - NNE 1017,3 30 0 0,0
16.05.2019 21:00:00 12,4 3,8 - - 9 5 - - E 1017,1 27 30 0,0
16.05.2019 20:00:00 15,0 2,4 - - 18 10 - - SE 1016,9 40 60 0,0
16.05.2019 19:00:00 16,1 3,9 - - 15 8 - - ESE 1017,0 40 30 0,0
16.05.2019 18:00:00 16,8 5,4 - - 18 10 - - SE 1017,3 40 54 0,0
16.05.2019 17:00:00 17,6 7,3 - - 22 12 - - E 1017,6 30 60 0,0
16.05.2019 16:00:00 17,4 6,6 - - 21 11 - - SE 1018,1 40 30 0,0
16.05.2019 15:00:00 15,9 6,2 - - 24 13 - - SE 1018,8 35 0 0,0
16.05.2019 14:00:00 16,2 7,5 - - 9 5 - - SSE 1019,2 28 0 0,0
16.05.2019 13:00:00 15,6 6,0 - - 15 8 - - SE 1019,5 40 0 0,0
16.05.2019 12:00:00 16,0 8,7 - - 8 4 - - SSW 1019,5 29 0 0,0
16.05.2019 11:00:00 16,0 7,9 - - 2 1 - - E 1019,7 35 0 0,0
16.05.2019 10:00:00 14,5 6,4 16,7 10,7 5 3 - - WNW 1019,9 19 6 0,0
16.05.2019 09:00:00 14,5 7,1 - - 2 1 - - SSE 1020,0 28 30 0,0
16.05.2019 08:00:00 12,1 7,2 - - 4 2 - - NNW 1020,3 20 6 0,0
16.05.2019 07:00:00 9,5 6,2 - - 8 4 - - ENE 1020,5 15 0 0,0
16.05.2019 06:00:00 8,6 4,4 - - 4 2 - - NW 1020,4 35 0 0,0
16.05.2019 05:00:00 7,4 2,9 - - 8 4 - - NE 1020,6 40 0 0,0
16.05.2019 04:00:00 7,9 2,7 - - 2 1 - - SSE 1021,0 45 0 0,0
16.05.2019 03:00:00 9,1 2,2 - - 9 5 - - S 1021,2 45 0 0,0
16.05.2019 02:00:00 8,9 2,3 - - 5 3 - - SSW 1021,4 45 0 0,0
16.05.2019 01:00:00 13,5 0,8 - - 5 3 - - W 1021,4 50 - 0,0
16.05.2019 00:00:00 12,9 4,1 - - 11 6 - - SW 1021,7 50 0 0,0
15.05.2019 23:00:00 16,9 -0,7 - - 5 3 - - NNE 1021,3 50 0 0,0
15.05.2019 22:00:00 16,7 3,6 - - 8 4 - - ESE 1021,8 45 0 0,0
15.05.2019 21:00:00 16,2 5,9 - - 11 6 - - E 1022,1 40 30 0,0
15.05.2019 20:00:00 16,6 6,9 - - 11 6 - - SE 1022,1 50 12 0,0
15.05.2019 19:00:00 17,8 7,6 - - 13 7 - - ESE 1022,2 50 24 0,0
15.05.2019 18:00:00 20,1 7,4 - - 15 8 - - S 1022,5 35 60 0,0
15.05.2019 17:00:00 20,0 7,4 - - 24 13 - - S 1022,9 30 24 0,0
15.05.2019 16:00:00 19,8 7,9 - - 8 4 - - E 1023,1 40 0 0,0

tt = temperature
td = dewpoint
tt -20cm = temperature -20cm
tt -100cm = temperature -100cm
ff = wind speed
fx = gusts
dd = wind direction
ppp = reduced air pressure
vv = visibility
sd = sunshine duration
rr = precipitation

Next stations